Montague, CA

5:51 PM PDT on March 24, 2017 (GMT -0700)
Siskiyou County

Weather History for KSIY - March, 2013

Change the Weather History Date:

Tuesday, March 19, 2013

  Actual Average Record
Temperature  
Mean Temperature 51 °F 43 °F  
Max Temperature 61 °F 57 °F 77 °F (1960)
Min Temperature 40 °F 30 °F 19 °F (2006)
Degree Days  
Heating Degree Days 14 22  
Month to date heating degree days 395 423  
Since 1 July heating degree days 4135 4300  
Cooling Degree Days 0 0  
Month to date cooling degree days 0 0  
Year to date cooling degree days 0 0  
Growing Degree Days 1 (Base 50)    
Moisture  
Dew Point 35 °F    
Average Humidity 56    
Maximum Humidity 82    
Minimum Humidity 37    
Precipitation  
Precipitation 0.02 in 0.06 in 0.85 in (1950)
Month to date precipitation 0.14 1.45  
Year to date precipitation 1.18 5.66  
Sea Level Pressure  
Sea Level Pressure 30.02 in    
Wind  
Wind Speed 13 mph (SE)    
Max Wind Speed 31 mph    
Max Gust Speed 47 mph    
Visibility 10 miles    
Events      
T = Trace of Precipitation, MM = Missing Value Source: NWS Daily Summary

Daily Weather History Graph

Daily Weather History Graph

Search for Another Location

Airport or City:

Trip Planner

Search our weather history database for the weather conditions in past years. The results will help you decide how hot, cold, wet, or windy it might be!

Date:

Astronomy

Mar. 19, 2013 Rise Set
Actual Time 7:14 AM PDT 7:21 PM PDT
Civil Twilight 6:46 AM PDT 7:49 PM PDT
Nautical Twilight 6:14 AM PDT 8:21 PM PDT
Astronomical Twilight 5:41 AM PDT 8:54 PM PDT
Moon 12:04 PM PDT (3/19) 2:17 AM PDT (3/19)
Length of Visible Light 13h 02m
Length of Day
12h 07m
Waxing Crescent, 51% of the Moon is Illuminated
Mar 19
Waxing Crescent
Mar 27
Full
Apr 2
Last Quarter
Apr 10
New
Apr 18
First Quarter

Hourly Weather History & Observations

Time (PDT) Temp. Windchill Dew Point Humidity Pressure Visibility Wind Dir Wind Speed Gust Speed Precip Events Conditions
12:53 AM 46.0 °F - 28.9 °F 51% 30.10 in - Calm Calm - N/A   Overcast
1:53 AM 44.1 °F 42.5 °F 30.0 °F 58% 30.10 in - North 3.5 mph - N/A   Overcast
2:53 AM 42.1 °F - 28.9 °F 60% 30.09 in - Calm Calm - N/A   Overcast
3:53 AM 43.0 °F 41.3 °F 30.0 °F 60% 30.09 in - ENE 3.5 mph - N/A   Overcast
4:53 AM 44.1 °F 41.5 °F 30.9 °F 60% 30.09 in - North 4.6 mph - N/A   Overcast
5:53 AM 43.0 °F 39.5 °F 30.9 °F 62% 30.08 in - ENE 5.8 mph - N/A   Overcast
6:53 AM 42.1 °F - 32.0 °F 67% 30.10 in - Calm Calm - N/A   Overcast
7:53 AM 43.0 °F 38.8 °F 30.9 °F 62% 30.11 in - NE 6.9 mph - N/A   Overcast
8:53 AM 46.9 °F - 32.0 °F 56% 30.10 in - North 6.9 mph - N/A   Scattered Clouds
9:53 AM 52.0 °F - 30.9 °F 45% 30.08 in - North 4.6 mph - N/A   Clear
10:53 AM 55.0 °F - 33.1 °F 43% 30.07 in - Variable 3.5 mph - N/A   Partly Cloudy
11:53 AM 59.0 °F - 34.0 °F 39% 30.06 in - South 13.8 mph - N/A   Overcast
12:53 PM 60.1 °F - 37.0 °F 42% 30.03 in 10.0 mi South 24.2 mph 31.1 mph N/A   Mostly Cloudy
1:53 PM 59.0 °F - 37.0 °F 44% 30.01 in 10.0 mi South 21.9 mph 26.5 mph N/A   Mostly Cloudy
2:53 PM 59.0 °F - 37.0 °F 44% 29.99 in 10.0 mi South 23.0 mph - N/A   Overcast
3:53 PM 57.0 °F - 37.0 °F 47% 29.99 in 10.0 mi South 27.6 mph 32.2 mph N/A   Overcast
4:53 PM 54.0 °F - 37.0 °F 53% 29.98 in 10.0 mi South 28.8 mph 33.4 mph 0.00 in   Overcast
5:53 PM 53.1 °F - 37.0 °F 55% 29.96 in 10.0 mi SSE 20.7 mph 28.8 mph N/A   Overcast
6:53 PM 53.1 °F - 37.0 °F 55% 29.92 in 10.0 mi South 24.2 mph 31.1 mph N/A   Overcast
7:53 PM 52.0 °F - 37.9 °F 59% 29.94 in 10.0 mi South 19.6 mph 47.2 mph N/A   Overcast
8:53 PM 52.0 °F - 37.9 °F 59% 29.92 in 10.0 mi SSE 19.6 mph 28.8 mph N/A   Overcast
9:53 PM 51.1 °F - 39.0 °F 63% 29.91 in 10.0 mi SSE 12.7 mph - N/A   Overcast
10:53 PM 48.9 °F - 42.1 °F 77% 29.91 in 10.0 mi SSW 12.7 mph - 0.02 in   Overcast
11:53 PM 46.9 °F - 41.0 °F 80% 29.89 in 10.0 mi Variable 5.8 mph - 0.00 in   Mostly Cloudy